Hourly Data Report for October 15, 2016

All times are specified in Local Standard Time (LST). Add 1 hour to adjust for Daylight Saving Time where and when it is observed.

EUREKA CLIMATE
NUNAVUT

79°59'21.000" N
85°56'02.000" W
10.00 m
2401199
71613
NEK

Download Data

Hourly Data (October 2016)
Hourly Data Report for October 15, 2016
Temp Definition
°C
Dew Point Temp Definition
°C
Rel Hum Definition
%
Wind Dir Definition
10's deg

Wind Spd Definition
km/h
Visibility Definition
km
Stn Press Definition
kPa
Hmdx Definition


Wind Chill Definition


Weather Definition


TIME
00:00 -24.3 -26.4 83 12 3   101.42   -27 LegendNANA
01:00 -24.4 -26.5 83 11 3   101.39   -27 LegendNANA
02:00 -25.6 -27.9 81 12 5   101.40   -31 LegendNANA
03:00 -26.4 -28.7 80 11 1   101.37   -27 LegendNANA
04:00 -26.3 -28.6 81 12 2   101.33   -28 LegendNANA
05:00 -25.8 -28.1 81 11 4   101.30   -30 LegendNANA
06:00 -25.3 -27.5 82 13 2   101.27   -27 LegendNANA
07:00 -26.1 -28.5 81 10 2   101.23   -28 LegendNANA
08:00 -25.1 -27.3 82 14 1   101.16   -26 LegendNANA
09:00 -25.8 -28.0 81 12 4   101.14   -30 LegendNANA
10:00 -24.9 -27.1 82 12 4   101.11   -29 LegendNANA
11:00 -24.4 -26.5 83 13 3   101.07   -27 LegendNANA
12:00 -25.1 -27.3 82 11 3   101.05   -28 LegendNANA
13:00 -24.9 -27.1 82 11 1   101.02   -26 LegendNANA
14:00 -25.8 -28.1 81 12 3   100.98   -29 LegendNANA
15:00 -26.1 -28.5 81 11 2   100.98   -28 LegendNANA
16:00 -26.6 -29.0 80 3 2   100.95   -29 LegendNANA
17:00 -27.7 -30.1 80 6 2   100.93   -30 LegendNANA
18:00 -26.6 -28.9 81 4 2   100.93   -29 LegendNANA
19:00 -25.2 -27.4 82 7 2   100.93   -27 LegendNANA
20:00 -24.2 -26.4 82 9 1   100.93   -25 LegendNANA
21:00 -23.4 -25.4 83 5 1   100.92   -24 LegendNANA
22:00 -22.1 -24.0 85 20 1   100.90   -23 LegendNANA
23:00 -21.4 -23.2 85 11 1   100.91   -22 LegendNANA

Notes on Data Quality.

Legend

  • E = Estimated
  • M = Missing
  • NA = Not Available
  • ‡ = Partner data that is not subject to review by the National Climate Archives
Date modified: